CW6344 Weather Reports


time (UTC)temp
F
wind
direction
speed
knots
gust
knots
rain 1hr
in
rain 24hr
in
rain mn
in
humidity
%
barometer
mb
20260508135454 60 271 0.0 3.5 0.00 0.03 0.01 53 1016.0
20260508134524 59 336 0.0 0.0 0.00 0.03 0.01 42 1016.0
20260508133454 58 346 0.0 0.9 0.00 0.03 0.01 51 1016.0
20260508132454 58 273 0.0 2.6 0.00 0.03 0.01 56 1016.0
20260508131454 57 261 2.6 3.5 0.00 0.03 0.01 56 1016.0
20260508130454 56 280 0.0 2.6 0.00 0.03 0.01 64 1016.0
20260508125454 55 256 0.0 2.6 0.00 0.03 0.01 67 1015.9
20260508124624 55 256 0.0 1.7 0.00 0.03 0.01 67 1015.8
20260508123454 55 296 0.0 0.9 0.00 0.03 0.01 71 1015.7
20260508122454 54 295 0.0 0.9 0.00 0.03 0.01 71 1015.6
20260508121454 53 33 0.0 0.0 0.00 0.03 0.01 77 1015.5
20260508120524 52 306 0.9 2.6 0.00 0.03 0.01 77 1015.5
20260508115454 52 256 0.0 1.7 0.00 0.03 0.01 81 1015.4
20260508114524 50 151 0.0 0.0 0.00 0.03 0.01 84 1015.4
20260508113454 49 138 0.0 0.0 0.00 0.03 0.01 88 1015.2
20260508112524 48 138 0.0 0.0 0.00 0.03 0.01 89 1015.1
20260508110454 47 138 0.0 0.0 0.01 0.03 0.01 90 1014.9
20260508105454 46 173 0.0 0.0 0.01 0.04 0.01 90 1014.8
20260508104454 46 173 0.0 0.0 0.01 0.04 0.01 91 1014.6
20260508102454 45 325 0.0 0.0 0.01 0.04 0.01 91 1014.3
20260508101454 45 325 0.0 0.0 0.01 0.04 0.01 91 1014.3
20260508100454 46 325 0.0 0.0 0.00 0.03 0.00 91 1014.3
20260508095454 46 325 0.0 0.0 0.00 0.03 0.00 91 1014.0
20260508094454 46 325 0.0 0.0 0.00 0.03 0.00 91 1014.0
20260508093454 46 306 0.0 0.0 0.00 0.03 0.00 91 1013.9
20260508092454 46 306 0.0 0.0 0.00 0.03 0.00 91 1013.9
20260508091454 47 306 0.0 0.0 0.00 0.03 0.00 92 1013.8
20260508090454 47 306 0.0 0.0 0.00 0.03 0.00 92 1013.7
20260508084524 47 255 0.0 0.0 0.00 0.03 0.00 92 1013.5
20260508083454 48 257 0.0 0.0 0.00 0.03 0.00 92 1013.2
20260508082454 48 254 0.0 0.0 0.00 0.03 0.00 92 1013.1
20260508080454 48 254 0.0 0.0 0.00 0.03 0.00 92 1013.0
20260508075454 48 256 0.0 0.0 0.00 0.03 0.00 92 1012.9
20260508074454 48 229 0.0 0.9 0.00 0.03 0.00 92 1012.8
20260508073454 49 217 0.0 0.0 0.00 0.03 0.00 92 1012.7
20260508072524 48 217 0.0 0.0 0.00 0.03 0.00 92 1012.7
20260508070454 48 278 0.0 0.0 0.00 0.03 0.00 92 1012.4
20260508065524 48 278 0.0 0.0 0.00 0.03 0.00 92 1012.3
20260508064454 48 278 0.0 0.0 0.00 0.03 0.00 92 1012.2
20260508062454 48 278 0.0 0.0 0.00 0.03 0.00 92 1012.0
20260508061454 49 278 0.0 0.0 0.00 0.03 0.00 91 1011.9
20260508060524 49 278 0.0 0.0 0.00 0.03 0.00 91 1012.0
20260508055454 49 278 0.0 0.0 0.00 0.03 0.00 92 1011.8
20260508054454 50 278 0.0 0.0 0.00 0.03 0.00 91 1011.9
20260508053454 49 278 0.0 0.0 0.00 0.03 0.00 91 1011.8
20260508052524 50 278 0.0 0.0 0.00 0.05 0.00 91 1011.8
20260508051454 50 278 0.0 0.0 0.00 0.07 0.00 91 1011.8
20260508050454 50 278 0.0 0.0 0.00 0.07 0.00 91 1011.8
20260508045454 50 278 0.0 0.0 0.00 0.07 0.00 91 1011.8
20260508044454 50 278 0.0 0.0 0.00 0.07 0.00 91 1011.8
20260508043454 50 279 0.0 0.0 0.00 0.07 0.00 91 1011.8
20260508042454 50 279 0.0 0.0 0.00 0.07 0.00 90 1011.7
20260508041454 49 279 0.0 0.0 0.00 0.07 0.00 90 1011.7
20260508040454 49 279 0.0 0.0 0.00 0.07 0.07 90 1011.6
20260508035454 49 279 0.9 0.9 0.00 0.07 0.07 90 1011.6
20260508034454 49 200 0.0 0.0 0.00 0.07 0.07 90 1011.4
20260508033454 49 181 0.0 0.0 0.00 0.07 0.07 89 1011.3
20260508032454 49 181 0.0 0.0 0.00 0.07 0.07 89 1011.3
20260508031454 48 181 0.0 0.0 0.00 0.07 0.07 89 1011.3
20260508030454 48 179 0.0 0.0 0.00 0.07 0.07 89 1011.2
20260508025454 48 176 0.0 0.0 0.00 0.07 0.07 89 1011.2
20260508024454 48 176 0.0 0.0 0.00 0.07 0.07 88 1011.3
20260508023455 48 176 0.0 0.0 0.00 0.07 0.07 88 1011.2
20260508022455 48 176 0.0 0.0 0.00 0.07 0.07 88 1011.2
20260508021455 48 176 0.0 0.0 0.00 0.07 0.07 88 1011.2
20260508020455 48 176 0.0 0.0 0.00 0.07 0.07 87 1011.2
20260508015454 49 176 0.0 0.0 0.00 0.07 0.07 87 1011.1
20260508014454 49 176 0.0 0.0 0.00 0.07 0.07 87 1011.0
20260508013454 49 175 0.0 0.0 0.00 0.07 0.07 86 1011.0
20260508012455 49 175 0.0 0.0 0.00 0.07 0.07 86 1011.0
20260508011454 49 175 0.0 0.0 0.00 0.07 0.07 86 1010.8
20260508010455 50 175 0.0 0.0 0.00 0.07 0.07 85 1010.7
20260508004455 50 175 0.0 0.0 0.00 0.07 0.07 85 1010.5
20260508003455 51 175 0.0 0.0 0.00 0.07 0.07 86 1010.3
20260508002455 51 175 0.0 0.0 0.00 0.07 0.07 85 1010.3
20260508000457 52 175 0.0 0.0 0.00 0.07 0.07 86 1010.2
20260507235455 52 175 0.0 0.0 0.00 0.07 0.07 85 1009.9
20260507234455 53 175 0.0 0.0 0.00 0.07 0.07 84 1009.7
20260507233455 53 175 0.0 0.0 0.00 0.07 0.07 84 1009.7
20260507232455 54 175 0.0 0.0 0.00 0.07 0.07 83 1009.7
20260507231455 54 175 0.0 0.0 0.00 0.07 0.07 82 1009.5
20260507230455 54 176 0.0 0.0 0.00 0.07 0.07 81 1009.4
20260507224455 55 225 0.0 0.0 0.00 0.07 0.07 80 1009.4
20260507223455 55 147 0.0 0.9 0.00 0.07 0.07 77 1009.5
20260507222455 55 232 0.9 0.9 0.00 0.07 0.07 81 1009.4
20260507221455 55 279 0.0 0.0 0.00 0.07 0.07 79 1009.5
20260507220525 55 279 0.0 0.0 0.00 0.07 0.07 77 1009.5
20260507215455 55 327 0.0 0.0 0.00 0.07 0.07 79 1009.8
20260507214455 54 312 0.0 0.9 0.00 0.07 0.07 80 1009.9
20260507213455 54 238 0.0 1.7 0.00 0.07 0.07 82 1009.8
20260507212455 54 324 0.0 0.0 0.00 0.07 0.07 84 1009.7
20260507211455 53 260 0.0 0.0 0.00 0.07 0.07 84 1009.9
20260507210455 53 126 0.0 0.0 0.00 0.07 0.07 86 1009.8
20260507205455 54 99 0.0 0.0 0.01 0.07 0.07 85 1009.7
20260507204455 54 99 0.0 0.0 0.01 0.07 0.07 84 1009.5
20260507203455 53 48 0.0 0.0 0.02 0.07 0.07 85 1009.7
20260507202625 53 273 0.0 0.0 0.02 0.07 0.07 83 1010.4
20260507201455 54 272 0.0 0.0 0.02 0.07 0.07 81 1009.9
20260507200455 54 273 0.0 0.0 0.02 0.07 0.07 85 1009.5
20260507195455 54 272 0.0 0.0 0.01 0.06 0.06 81 1010.0
20260507194455 54 273 0.0 0.0 0.01 0.06 0.06 81 1010.0
20260507193455 54 272 0.0 0.0 0.00 0.05 0.05 78 1010.0
20260507192455 55 272 0.0 0.0 0.00 0.05 0.05 75 1010.4
20260507191455 55 272 0.0 0.0 0.00 0.05 0.05 74 1010.2
20260507190455 55 272 0.0 0.0 0.00 0.05 0.05 71 1010.1
20260507185455 56 272 0.0 0.0 0.00 0.05 0.05 64 1010.3
20260507184525 56 272 0.0 0.9 0.00 0.05 0.05 61 1010.3
20260507183455 57 325 0.0 1.7 0.00 0.05 0.05 64 1010.3
20260507182555 56 324 0.0 0.9 0.00 0.05 0.05 67 1010.4
20260507181455 56 274 0.0 0.0 0.00 0.05 0.05 63 1010.5
20260507180525 56 274 0.0 0.0 0.00 0.05 0.05 61 1010.8
20260507175455 56 298 0.0 0.0 0.00 0.05 0.05 68 1010.6
20260507174455 56 285 0.0 0.0 0.00 0.05 0.05 68 1010.9
20260507173455 56 284 0.0 0.0 0.00 0.05 0.05 67 1011.1
20260507172455 57 284 0.0 0.0 0.00 0.05 0.05 64 1011.4
20260507171455 57 279 0.0 0.0 0.00 0.05 0.05 62 1011.2
20260507170455 57 311 0.0 0.0 0.00 0.05 0.05 60 1011.1
20260507165455 58 287 0.0 0.0 0.00 0.05 0.05 58 1011.4
20260507164455 58 271 1.7 1.7 0.00 0.05 0.05 54 1011.2
20260507163455 58 328 0.0 0.0 0.00 0.05 0.05 58 1011.5
20260507162455 58 319 0.0 1.7 0.00 0.06 0.05 59 1011.6
20260507161455 58 289 0.0 0.0 0.00 0.06 0.05 59 1011.6
20260507160455 58 344 0.0 0.9 0.00 0.07 0.05 56 1011.9
20260507155455 58 192 0.0 0.9 0.00 0.09 0.05 62 1011.7
20260507154525 57 334 0.0 0.0 0.00 0.12 0.05 63 1011.7
20260507153455 57 319 0.0 0.0 0.00 0.12 0.05 60 1011.8
20260507152455 57 319 0.0 0.9 0.00 0.13 0.05 55 1012.0
20260507151455 58 282 0.0 0.9 0.00 0.13 0.05 58 1011.8
20260507150455 57 44 0.9 0.9 0.00 0.14 0.05 63 1011.9
20260507145455 57 360 0.0 0.9 0.00 0.14 0.05 55 1012.1
20260507144525 57 63 0.0 0.9 0.00 0.14 0.05 58 1012.0
20260507143455 58 311 1.7 2.6 0.00 0.14 0.05 58 1012.2
20260507142455 58 294 0.9 0.9 0.00 0.15 0.05 65 1012.2
20260507141455 58 51 0.0 0.9 0.00 0.15 0.05 65 1012.2
20260507140455 58 142 0.0 1.7 0.00 0.15 0.05 67 1012.0